| time (UTC) | temp F | wind direction | speed MPH | gust MPH | rain 1hr in | rain 24hr in | rain mn in | humidity % | barometer mb |
| 20260508134940 | 54 | 203 | 3.0 | 5.0 | 0.00 | 0.00 | 0.00 | 80 | 1011.7 |
| 20260508133916 | 54 | 158 | 4.0 | 7.0 | 0.00 | 0.00 | 0.00 | 80 | 1011.4 |
| 20260508132916 | 54 | 113 | 2.0 | 3.0 | 0.00 | 0.00 | 0.00 | 79 | 1011.5 |
| 20260508131915 | 54 | 158 | 2.0 | 3.0 | 0.00 | 0.00 | 0.00 | 81 | 1011.9 |
| 20260508130916 | 54 | 158 | 2.0 | 5.0 | 0.00 | 0.00 | 0.00 | 81 | 1011.7 |
| 20260508125916 | 54 | 180 | 3.0 | 5.0 | 0.00 | 0.00 | 0.00 | 80 | 1011.5 |
| 20260508124915 | 54 | 203 | 2.0 | 5.0 | 0.00 | 0.00 | 0.00 | 81 | 1011.4 |
| 20260508123915 | 53 | 158 | 3.0 | 5.0 | 0.00 | 0.00 | 0.00 | 81 | 1011.2 |
| 20260508122915 | 52 | 158 | 2.0 | 4.0 | 0.00 | 0.00 | 0.00 | 83 | 1011.3 |
| 20260508121915 | 51 | 158 | 2.0 | 2.0 | 0.00 | 0.00 | 0.00 | 83 | 1011.3 |
| 20260508120915 | 51 | 158 | 1.0 | 2.0 | 0.00 | 0.00 | 0.00 | 84 | 1011.3 |
| 20260508115915 | 49 | 158 | 2.0 | 5.0 | 0.00 | 0.00 | 0.00 | 85 | 1011.2 |
| 20260508114915 | 48 | 180 | 2.0 | 3.0 | 0.00 | 0.00 | 0.00 | 87 | 1011.2 |
| 20260508113935 | 46 | 0.0 | 0.0 | 0.00 | 0.00 | 0.00 | 89 | 1011.0 | |
| 20260508112915 | 46 | 0.0 | 0.0 | 0.00 | 0.00 | 0.00 | 88 | 1010.9 | |
| 20260508111915 | 45 | 0.0 | 0.0 | 0.00 | 0.00 | 0.00 | 87 | 1010.8 | |
| 20260508110917 | 46 | 0.0 | 0.0 | 0.00 | 0.00 | 0.00 | 86 | 1010.9 | |
| 20260508105917 | 46 | 0.0 | 0.0 | 0.00 | 0.00 | 0.00 | 86 | 1010.9 | |
| 20260508104917 | 47 | 0.0 | 0.0 | 0.00 | 0.00 | 0.00 | 85 | 1011.0 | |
| 20260508103917 | 47 | 0.0 | 0.0 | 0.00 | 0.00 | 0.00 | 85 | 1011.1 | |
| 20260508102937 | 47 | 0.0 | 0.0 | 0.00 | 0.00 | 0.00 | 84 | 1011.1 | |
| 20260508101937 | 48 | 0.0 | 0.0 | 0.00 | 0.00 | 0.00 | 83 | 1011.0 | |
| 20260508100917 | 49 | 0.0 | 0.0 | 0.00 | 0.00 | 0.00 | 81 | 1010.8 | |
| 20260508095937 | 50 | 0.0 | 0.0 | 0.00 | 0.00 | 0.00 | 81 | 1010.9 | |
| 20260508094939 | 50 | 0.0 | 0.0 | 0.00 | 0.00 | 0.00 | 80 | 1010.8 | |
| 20260508093917 | 51 | 0.0 | 0.0 | 0.00 | 0.00 | 0.00 | 79 | 1010.9 | |
| 20260508092918 | 51 | 0.0 | 1.0 | 0.00 | 0.00 | 0.00 | 78 | 1010.9 | |
| 20260508091917 | 52 | 0.0 | 1.0 | 0.00 | 0.00 | 0.00 | 77 | 1010.8 | |
| 20260508090917 | 52 | 315 | 3.0 | 5.0 | 0.00 | 0.00 | 0.00 | 77 | 1010.9 |
| 20260508085917 | 52 | 158 | 3.0 | 5.0 | 0.00 | 0.00 | 0.00 | 77 | 1010.5 |
| 20260508084917 | 52 | 180 | 4.0 | 7.0 | 0.00 | 0.00 | 0.00 | 76 | 1010.6 |
| 20260508083917 | 52 | 180 | 4.0 | 6.0 | 0.00 | 0.00 | 0.00 | 77 | 1010.6 |
| 20260508082937 | 52 | 180 | 3.0 | 6.0 | 0.00 | 0.00 | 0.00 | 77 | 1010.6 |
| 20260508081917 | 52 | 158 | 4.0 | 5.0 | 0.00 | 0.00 | 0.00 | 77 | 1010.7 |
| 20260508080917 | 53 | 158 | 4.0 | 8.0 | 0.00 | 0.00 | 0.00 | 76 | 1010.9 |
| 20260508075917 | 53 | 180 | 4.0 | 6.0 | 0.00 | 0.00 | 0.00 | 76 | 1010.9 |
| 20260508074917 | 53 | 180 | 4.0 | 7.0 | 0.00 | 0.00 | 0.00 | 77 | 1011.0 |
| 20260508073937 | 53 | 180 | 2.0 | 4.0 | 0.00 | 0.00 | 0.00 | 76 | 1011.1 |
| 20260508072917 | 53 | 180 | 4.0 | 6.0 | 0.00 | 0.00 | 0.00 | 76 | 1011.3 |
| 20260508071917 | 54 | 180 | 4.0 | 7.0 | 0.00 | 0.00 | 0.00 | 75 | 1011.5 |
| 20260508070916 | 54 | 180 | 4.0 | 7.0 | 0.00 | 0.00 | 0.00 | 75 | 1011.6 |
| 20260508065917 | 54 | 158 | 4.0 | 7.0 | 0.00 | 0.00 | 0.00 | 75 | 1011.7 |
| 20260508064916 | 54 | 180 | 2.0 | 4.0 | 0.00 | 0.00 | 0.00 | 75 | 1011.7 |
| 20260508063916 | 54 | 180 | 3.0 | 7.0 | 0.00 | 0.00 | 0.00 | 75 | 1011.8 |
| 20260508062916 | 54 | 180 | 4.0 | 7.0 | 0.00 | 0.00 | 0.00 | 75 | 1012.0 |
| 20260508061916 | 54 | 158 | 5.0 | 6.0 | 0.00 | 0.00 | 0.00 | 75 | 1012.2 |
| 20260508060916 | 54 | 180 | 4.0 | 6.0 | 0.00 | 0.00 | 0.00 | 75 | 1012.2 |
| 20260508055937 | 54 | 180 | 4.0 | 6.0 | 0.00 | 0.00 | 0.00 | 75 | 1012.2 |
| 20260508054917 | 54 | 180 | 3.0 | 5.0 | 0.00 | 0.00 | 0.00 | 75 | 1012.2 |
| 20260508053936 | 54 | 203 | 4.0 | 5.0 | 0.00 | 0.00 | 0.00 | 76 | 1012.2 |
| 20260508052956 | 53 | 180 | 4.0 | 7.0 | 0.00 | 0.00 | 0.00 | 76 | 1012.1 |
| 20260508051916 | 53 | 180 | 3.0 | 5.0 | 0.00 | 0.00 | 0.00 | 76 | 1012.2 |
| 20260508050916 | 53 | 158 | 4.0 | 5.0 | 0.00 | 0.00 | 0.00 | 76 | 1012.3 |
| 20260508045916 | 53 | 180 | 4.0 | 6.0 | 0.00 | 0.00 | 0.00 | 76 | 1012.4 |
| 20260508044916 | 53 | 180 | 3.0 | 6.0 | 0.00 | 0.00 | 0.00 | 77 | 1012.5 |
| 20260508043936 | 53 | 180 | 4.0 | 6.0 | 0.00 | 0.00 | 0.00 | 77 | 1012.6 |
| 20260508042916 | 53 | 180 | 4.0 | 5.0 | 0.00 | 0.00 | 0.00 | 78 | 1012.6 |
| 20260508041936 | 52 | 158 | 3.0 | 6.0 | 0.00 | 0.00 | 0.00 | 78 | 1012.5 |
| 20260508040916 | 52 | 158 | 3.0 | 5.0 | 0.00 | 0.00 | 0.00 | 79 | 1012.6 |
| 20260508035917 | 52 | 158 | 3.0 | 4.0 | 0.00 | 0.00 | 0.00 | 78 | 1012.6 |
| 20260508034916 | 52 | 135 | 1.0 | 3.0 | 0.00 | 0.00 | 0.00 | 78 | 1012.5 |
| 20260508033916 | 52 | 135 | 1.0 | 2.0 | 0.00 | 0.00 | 0.00 | 77 | 1012.4 |
| 20260508032916 | 52 | 135 | 1.0 | 2.0 | 0.00 | 0.00 | 0.00 | 77 | 1012.4 |
| 20260508031916 | 53 | 158 | 1.0 | 2.0 | 0.00 | 0.00 | 0.00 | 76 | 1012.4 |
| 20260508030916 | 53 | 135 | 1.0 | 2.0 | 0.00 | 0.00 | 0.00 | 76 | 1012.4 |
| 20260508025916 | 53 | 135 | 2.0 | 3.0 | 0.00 | 0.00 | 0.00 | 75 | 1012.3 |
| 20260508024916 | 54 | 135 | 2.0 | 5.0 | 0.00 | 0.00 | 0.00 | 74 | 1012.3 |
| 20260508023936 | 54 | 135 | 1.0 | 3.0 | 0.00 | 0.00 | 0.00 | 73 | 1012.3 |
| 20260508022916 | 55 | 113 | 1.0 | 3.0 | 0.00 | 0.00 | 0.00 | 72 | 1012.2 |
| 20260508021916 | 55 | 158 | 3.0 | 4.0 | 0.00 | 0.00 | 0.00 | 73 | 1012.2 |
| 20260508020916 | 54 | 135 | 2.0 | 2.0 | 0.00 | 0.00 | 0.00 | 74 | 1012.0 |
| 20260508015916 | 54 | 135 | 3.0 | 4.0 | 0.00 | 0.00 | 0.00 | 78 | 1011.8 |
| 20260508014916 | 56 | 113 | 1.0 | 2.0 | 0.00 | 0.00 | 0.00 | 76 | 1011.8 |
| 20260508013918 | 57 | 135 | 2.0 | 4.0 | 0.00 | 0.00 | 0.00 | 75 | 1011.7 |
| 20260508012916 | 58 | 158 | 1.0 | 2.0 | 0.00 | 0.00 | 0.00 | 72 | 1011.8 |
| 20260508011916 | 58 | 135 | 1.0 | 2.0 | 0.00 | 0.00 | 0.00 | 70 | 1011.7 |
| 20260508010916 | 58 | 0 | 1.0 | 2.0 | 0.00 | 0.00 | 0.00 | 70 | 1011.8 |
| 20260508005916 | 58 | 90 | 2.0 | 2.0 | 0.00 | 0.00 | 0.00 | 69 | 1011.7 |
| 20260508004916 | 59 | 68 | 2.0 | 3.0 | 0.00 | 0.00 | 0.00 | 69 | 1011.5 |
| 20260508003916 | 59 | 248 | 1.0 | 2.0 | 0.00 | 0.00 | 0.00 | 67 | 1011.7 |
| 20260508002916 | 59 | 135 | 3.0 | 4.0 | 0.00 | 0.00 | 0.00 | 71 | 1011.4 |
| 20260508001916 | 59 | 0.0 | 1.0 | 0.00 | 0.00 | 0.00 | 71 | 1011.3 | |
| 20260508000916 | 60 | 135 | 1.0 | 2.0 | 0.00 | 0.00 | 0.00 | 71 | 1011.3 |
| 20260507235916 | 60 | 135 | 1.0 | 2.0 | 0.00 | 0.00 | 0.00 | 73 | 1011.2 |
| 20260507234916 | 60 | 0.0 | 0.0 | 0.00 | 0.00 | 0.00 | 70 | 1011.4 | |
| 20260507233916 | 60 | 0.0 | 0.0 | 0.00 | 0.00 | 0.00 | 66 | 1011.4 | |
| 20260507232915 | 60 | 90 | 1.0 | 2.0 | 0.00 | 0.00 | 0.00 | 66 | 1011.4 |
| 20260507231916 | 60 | 90 | 1.0 | 2.0 | 0.00 | 0.00 | 0.00 | 66 | 1011.4 |
| 20260507230915 | 59 | 135 | 2.0 | 3.0 | 0.00 | 0.00 | 0.00 | 67 | 1011.5 |
| 20260507225916 | 59 | 23 | 2.0 | 3.0 | 0.00 | 0.00 | 0.00 | 64 | 1011.7 |
| 20260507224915 | 59 | 225 | 2.0 | 3.0 | 0.00 | 0.00 | 0.00 | 63 | 1011.8 |
| 20260507223916 | 59 | 203 | 4.0 | 7.0 | 0.00 | 0.00 | 0.00 | 64 | 1012.2 |
| 20260507222915 | 63 | 225 | 9.0 | 23.0 | 0.00 | 0.00 | 0.00 | 54 | 1012.6 |
| 20260507221916 | 64 | 225 | 3.0 | 4.0 | 0.00 | 0.00 | 0.00 | 48 | 1011.9 |
| 20260507220915 | 65 | 203 | 6.0 | 9.0 | 0.00 | 0.00 | 0.00 | 47 | 1012.0 |
| 20260507215915 | 65 | 225 | 3.0 | 4.0 | 0.00 | 0.00 | 0.00 | 46 | 1011.8 |
| 20260507214915 | 65 | 248 | 6.0 | 9.0 | 0.00 | 0.00 | 0.00 | 49 | 1011.7 |
| 20260507213915 | 63 | 0.0 | 1.0 | 0.00 | 0.00 | 0.00 | 55 | 1011.9 | |
| 20260507212915 | 62 | 293 | 1.0 | 3.0 | 0.00 | 0.00 | 0.00 | 59 | 1012.0 |
| 20260507211915 | 61 | 248 | 1.0 | 2.0 | 0.00 | 0.00 | 0.00 | 63 | 1012.1 |
| 20260507210916 | 58 | 0.0 | 1.0 | 0.00 | 0.00 | 0.00 | 73 | 1012.0 | |
| 20260507205917 | 58 | 225 | 4.0 | 8.0 | 0.00 | 0.00 | 0.00 | 63 | 1012.7 |
| 20260507204917 | 61 | 248 | 8.0 | 11.0 | 0.00 | 0.00 | 0.00 | 53 | 1012.8 |
| 20260507204505 | 64 | 203 | 6.0 | 10.0 | 0.00 | 0.00 | 0.00 | 43 | 1012.3 |
| 20260507203037 | 65 | 225 | 5.0 | 11.0 | 0.00 | 0.00 | 0.00 | 44 | 1012.2 |
| 20260507202017 | 66 | 203 | 7.0 | 10.0 | 0.00 | 0.00 | 0.00 | 44 | 1012.4 |
| 20260507201017 | 65 | 248 | 5.0 | 10.0 | 0.00 | 0.00 | 0.00 | 45 | 1012.5 |
| 20260507200018 | 65 | 270 | 6.0 | 9.0 | 0.00 | 0.00 | 0.00 | 43 | 1012.6 |
| 20260507195017 | 65 | 225 | 9.0 | 11.0 | 0.00 | 0.00 | 0.00 | 41 | 1012.6 |
| 20260507194017 | 65 | 293 | 4.0 | 8.0 | 0.00 | 0.00 | 0.00 | 42 | 1012.7 |
| 20260507193017 | 66 | 270 | 6.0 | 10.0 | 0.00 | 0.00 | 0.00 | 42 | 1013.0 |
| 20260507192017 | 66 | 180 | 3.0 | 5.0 | 0.00 | 0.00 | 0.00 | 47 | 1013.3 |
| 20260507191017 | 65 | 248 | 5.0 | 9.0 | 0.00 | 0.00 | 0.00 | 44 | 1013.2 |
| 20260507190017 | 65 | 293 | 2.0 | 3.0 | 0.00 | 0.00 | 0.00 | 43 | 1013.3 |
| 20260507185037 | 64 | 293 | 8.0 | 12.0 | 0.00 | 0.00 | 0.00 | 45 | 1013.3 |
| 20260507184017 | 64 | 315 | 9.0 | 12.0 | 0.00 | 0.00 | 0.00 | 46 | 1013.5 |
| 20260507183017 | 63 | 23 | 5.0 | 10.0 | 0.00 | 0.00 | 0.00 | 46 | 1013.6 |
| 20260507182017 | 63 | 248 | 4.0 | 10.0 | 0.00 | 0.00 | 0.00 | 46 | 1013.7 |
| 20260507181037 | 65 | 293 | 9.0 | 12.0 | 0.00 | 0.00 | 0.00 | 46 | 1013.8 |
| 20260507180017 | 62 | 293 | 8.0 | 10.0 | 0.00 | 0.00 | 0.00 | 48 | 1013.8 |
| 20260507175018 | 61 | 270 | 8.0 | 12.0 | 0.00 | 0.00 | 0.00 | 53 | 1013.9 |
| 20260507174017 | 61 | 293 | 5.0 | 7.0 | 0.00 | 0.00 | 0.00 | 53 | 1014.2 |
| 20260507173017 | 62 | 315 | 4.0 | 6.0 | 0.00 | 0.00 | 0.00 | 49 | 1014.2 |
| 20260507172017 | 61 | 293 | 6.0 | 9.0 | 0.00 | 0.00 | 0.00 | 51 | 1014.4 |
| 20260507171037 | 60 | 293 | 7.0 | 9.0 | 0.00 | 0.00 | 0.00 | 52 | 1014.6 |
| 20260507170017 | 60 | 248 | 4.0 | 8.0 | 0.00 | 0.00 | 0.00 | 52 | 1014.7 |
| 20260507165056 | 60 | 203 | 8.0 | 9.0 | 0.00 | 0.00 | 0.00 | 52 | 1014.8 |
| 20260507164237 | 60 | 225 | 4.0 | 8.0 | 0.00 | 0.00 | 0.00 | 51 | 1014.8 |
| 20260507163257 | 61 | 270 | 6.0 | 11.0 | 0.00 | 0.00 | 0.00 | 50 | 1014.8 |
| 20260507162217 | 62 | 270 | 6.0 | 13.0 | 0.00 | 0.00 | 0.00 | 49 | 1014.9 |
| 20260507161217 | 61 | 270 | 6.0 | 11.0 | 0.00 | 0.00 | 0.00 | 49 | 1015.0 |
| 20260507160216 | 62 | 225 | 9.0 | 16.0 | 0.00 | 0.00 | 0.00 | 48 | 1015.0 |
| 20260507155216 | 61 | 293 | 9.0 | 14.0 | 0.00 | 0.00 | 0.00 | 47 | 1015.1 |
| 20260507154216 | 61 | 225 | 5.0 | 8.0 | 0.00 | 0.00 | 0.00 | 47 | 1015.0 |
| 20260507153216 | 61 | 225 | 7.0 | 15.0 | 0.00 | 0.00 | 0.00 | 48 | 1015.0 |
| 20260507152216 | 60 | 248 | 9.0 | 13.0 | 0.00 | 0.00 | 0.00 | 47 | 1014.9 |
| 20260507151216 | 59 | 180 | 8.0 | 15.0 | 0.00 | 0.00 | 0.00 | 48 | 1014.9 |
| 20260507150216 | 58 | 225 | 9.0 | 17.0 | 0.00 | 0.00 | 0.00 | 49 | 1015.1 |
| 20260507145216 | 58 | 225 | 10.0 | 19.0 | 0.00 | 0.00 | 0.00 | 47 | 1015.1 |
| 20260507144216 | 57 | 203 | 13.0 | 22.0 | 0.00 | 0.00 | 0.00 | 46 | 1015.3 |
| 20260507143216 | 57 | 225 | 9.0 | 13.0 | 0.00 | 0.00 | 0.00 | 48 | 1015.5 |
| 20260507142216 | 56 | 180 | 8.0 | 12.0 | 0.00 | 0.00 | 0.00 | 48 | 1015.6 |
| 20260507141216 | 55 | 225 | 9.0 | 15.0 | 0.00 | 0.00 | 0.00 | 52 | 1015.8 |
| 20260507140216 | 54 | 180 | 11.0 | 17.0 | 0.00 | 0.00 | 0.00 | 54 | 1015.8 |